[[{"header":{"parameterUnit":"m.s-1","parameterCategory":1,"la1":30.2991,"la2":30.254,"lo1":-89.0895,"lo2":-89.0444,"dy":0.0017,"dx":0.0017,"nx":28,"ny":28,"refTime":"2024-04-07T21:00:00:Z","depth":0,"parameterNumber":2,"parameterNumberName":"U-component_of_WINDS"},"data":[0,0,0,0,0,0,0,0,0,0,0,0,0,0,0,0,0,0,0,0,0,0,0,0,0,0,0,0,0,0,0,0,0,0,0,0,0,0,0,0,0,0,0,0,0,0,0,0,0,0,0,0,0,0,0,0,0,0,-2.756,-2.7561,0,-2.766,-2.7661,-2.7662,-2.7689,-2.7688,-2.7687,-2.7687,-2.7793,-2.7796,-2.7799,0,0,0,0,0,0,0,0,0,0,0,0,0,-2.7395,-2.7398,-2.756,-2.7561,-2.7562,-2.766,-2.7661,-2.7663,-2.7689,-2.7688,-2.7687,-2.7686,-2.7792,-2.7796,-2.78,0,0,0,0,0,0,0,0,0,0,0,0,0,-2.7478,-2.7399,-2.756,-2.7587,-2.759,-2.766,-2.7661,-2.7663,-2.7689,-2.7688,-2.7687,-2.7686,-2.779,-2.7795,-2.78,-2.785,0,0,-2.7816,-2.7818,0,0,0,0,0,0,0,0,-2.7474,-2.7484,-2.7582,-2.7585,-2.7589,-2.7661,-2.7642,-2.7726,-2.7689,-2.7652,-2.7687,-2.7686,-2.775,-2.7758,-2.7779,-2.7855,-2.786,-2.7816,-2.782,-2.7822,-2.7823,0,0,0,0,0,0,0,-2.7468,-2.748,-2.76,-2.7583,-2.7588,-2.7596,-2.7606,-2.7658,-2.7705,-2.7655,-2.7657,-2.7668,-2.7752,-2.7774,-2.7782,-2.7862,-2.7816,-2.7821,-2.7824,-2.7826,-2.7985,-2.7986,0,0,0,0,0,0,-2.7457,-2.7475,-2.7596,-2.7603,-2.7528,-2.7599,-2.7611,-2.7639,-2.7704,-2.7713,-2.7669,-2.7669,-2.7766,-2.7776,-2.7786,-2.7849,-2.7822,-2.7826,-2.7829,-2.7984,-2.7985,-2.7987,0,0,0,0,0,0,-2.7453,-2.7467,-2.7592,-2.754,-2.7556,-2.7603,-2.7634,-2.7641,-2.7664,-2.7715,-2.7724,-2.7683,-2.7766,-2.7779,-2.7834,-2.7853,-2.7829,-2.7833,-2.7983,-2.7984,-2.7986,-2.7975,0,0,0,0,0,0,-2.7448,-2.7466,-2.7484,-2.754,-2.7559,-2.7638,-2.7635,-2.7644,-2.7672,-2.7673,-2.773,-2.7739,-2.7766,-2.7826,-2.7839,-2.7859,-2.7837,-2.7981,-2.7983,-2.7985,-2.7974,-2.7976,-2.7978,0,0,0,0,0,-2.7442,-2.7478,-2.7485,-2.75,-2.7583,-2.7639,-2.765,-2.7679,-2.7673,-2.7693,-2.7726,-2.7737,-2.7849,-2.7832,-2.7847,-2.7868,-2.798,-2.7983,-2.7985,-2.7973,-2.7976,-2.7978,0,0,0,0,0,0,-2.7424,-2.7486,-2.7494,-2.7548,-2.7588,-2.7643,-2.7668,-2.7681,-2.7724,-2.7723,-2.7758,-2.7771,-2.7824,-2.7853,-2.7832,-2.7921,-2.7915,-2.792,-2.79,-2.7903,-2.7905,-2.7897,-2.7842,0,0,0,0,0,-2.7427,-2.7466,-2.7518,-2.7561,-2.758,-2.7621,-2.7646,-2.7665,-2.7708,-2.7725,-2.7763,-2.7805,-2.785,-2.7878,-2.7922,-2.7979,-2.7992,-2.8001,-2.8003,-2.8005,-2.8009,-2.8041,-2.8046,-2.7995,-2.7995,-2.7995,0,0,-2.7432,-2.747,-2.7493,-2.7558,-2.7591,-2.7632,-2.7635,-2.7678,-2.7709,-2.7733,-2.7787,-2.7816,-2.7866,-2.7922,-2.7948,-2.7947,-2.8026,-2.8008,-2.8009,-2.8012,-2.8045,-2.8049,-2.8054,-2.7997,-2.7997,-2.7996,0,0,-2.7462,-2.7495,-2.7534,-2.7567,-2.7616,-2.7643,-2.7653,-2.7706,-2.7726,-2.7781,-2.78,-2.7838,-2.7914,-2.7949,-2.7976,-2.8021,-2.8033,-2.8035,-2.8045,-2.8076,-2.808,-2.8084,-2.81,-2.8105,-2.8039,-2.8039,-2.8039,0,-2.7462,-2.7523,-2.7553,-2.7595,-2.7624,-2.7646,-2.7687,-2.7718,-2.778,-2.78,-2.7797,-2.7893,-2.7928,-2.7993,-2.8004,-2.8025,-2.8038,-2.8028,-2.8077,-2.8081,-2.8085,-2.8101,-2.8107,-2.8039,-2.8039,-2.8039,-2.8039,0,-2.7522,-2.7564,-2.759,-2.7648,-2.7679,-2.7721,-2.7758,-2.7787,-2.7804,-2.7831,-2.7888,-2.7931,-2.7984,-2.8001,-2.8018,-2.8069,-2.8066,-2.807,-2.8064,-2.8089,-2.8104,-2.8111,-2.8038,-2.8039,-2.8039,-2.8039,0,0,-2.7542,-2.7616,-2.7625,-2.7652,-2.7708,-2.7742,-2.7786,-2.7836,-2.7861,-2.7903,-2.7941,-2.8005,-2.8009,-2.804,-2.8062,-2.8089,-2.8122,-2.809,-2.8092,-2.8094,-2.8181,-2.8177,-2.8183,-2.8131,-2.8132,-2.8133,-2.8176,0,-2.7579,-2.7655,-2.7683,-2.7746,-2.7786,-2.7808,-2.7846,-2.7886,-2.7913,-2.7952,-2.7984,-2.8028,-2.803,-2.8049,-2.8078,-2.8112,-2.814,-2.8109,-2.8167,-2.8168,-2.8152,-2.8191,-2.8187,-2.8225,-2.8182,-2.8183,-2.8184,0,-2.7631,-2.7673,-2.7739,-2.7791,-2.7809,-2.7842,-2.7892,-2.7928,-2.7975,-2.7993,-2.8028,-2.8048,-2.8096,-2.8088,-2.8154,-2.8133,-2.8159,-2.8179,-2.8182,-2.8187,-2.8177,-2.8197,-2.8238,-2.8244,-2.8194,-2.8193,-2.8192,0,-2.7639,-2.7712,-2.7761,-2.7783,-2.7846,-2.7868,-2.7896,-2.7941,-2.797,-2.8014,-2.8033,-2.8083,-2.8109,-2.8148,-2.8181,-2.8172,-2.8245,-2.824,-2.8262,-2.8261,-2.8275,-2.8274,-2.832,-2.8293,-2.8293,-2.8293,-2.8293,0,-2.7677,-2.7716,-2.7765,-2.7795,-2.7841,-2.7874,-2.7919,-2.7948,-2.7988,-2.8025,-2.8049,-2.8084,-2.8126,-2.8167,-2.8194,-2.8245,-2.8257,-2.8274,-2.828,-2.8271,-2.8269,-2.8288,-2.8286,-2.8294,-2.8294,-2.8294,-2.8294,0,-2.7693,-2.7727,-2.7782,-2.7836,-2.7851,-2.7882,-2.7929,-2.796,-2.7989,-2.8036,-2.8049,-2.8095,-2.8144,-2.8181,-2.8246,-2.8264,-2.8318,-2.8325,-2.8302,-2.8305,-2.8325,-2.8322,-2.8385,-2.8395,-2.8361,-2.8361,-2.8361,0,-2.7714,-2.7745,-2.7802,-2.7828,-2.7855,-2.7896,-2.7926,-2.7961,-2.7991,-2.8046,-2.807,-2.8121,-2.8163,-2.8241,-2.8281,-2.8331,-2.8339,-2.8358,-2.8347,-2.8337,-2.8339,-2.8336,-2.834,-2.8359,-2.8359,-2.8359,-2.8359,0,-2.7748,-2.7764,-2.7804,-2.7851,-2.7886,-2.7925,-2.7964,-2.7985,-2.8027,-2.806,-2.811,-2.8142,-2.8207,-2.8258,-2.8311,-2.8341,-2.8358,-2.8362,-2.837,-2.8361,-2.8346,-2.8354,-2.8305,-2.836,-2.836,-2.836,-2.836,-2.836,-2.7768,-2.7796,-2.784,-2.7885,-2.7919,-2.7955,-2.7987,-2.8019,-2.8061,-2.8116,-2.8134,-2.8186,-2.8233,-2.8306,-2.8337,-2.8379,-2.8379,-2.839,-2.8393,-2.8395,-2.8394,-2.8339,-2.8389,-2.8389,-2.8389,-2.8389,-2.8389,0,-2.7803,-2.7832,-2.7873,-2.7927,-2.7963,-2.7974,-2.8019,-2.8048,-2.8093,-2.8134,-2.8175,-2.8233,-2.8282,-2.8326,-2.8377,-2.8403,-2.8411,-2.8415,-2.8413,-2.842,-2.8391,-2.8379,-2.8407,-2.8407,-2.8407,-2.8407,-2.8407,-2.8407,-2.7825,-2.7874,-2.7894,-2.796,-2.7991,-2.804,-2.8065,-2.8099,-2.8132,-2.8195,-2.8235,-2.8263,-2.8306,-2.8361,-2.8407,-2.8419,-2.8437,-2.8439,-2.8452,-2.8424,-2.8422,-2.842,-2.8408,-2.8442,-2.8442,-2.8478,-2.8478,-2.8478]},{"header":{"parameterUnit":"m.s-1","parameterCategory":1,"la1":30.2991,"la2":30.254,"lo1":-89.0895,"lo2":-89.0444,"dy":0.0017,"dx":0.0017,"nx":28,"ny":28,"refTime":"2024-04-07T21:00:00:Z","depth":0,"parameterNumber":3,"parameterNumberName":"V-component_of_WINDS"},"data":[0,0,0,0,0,0,0,0,0,0,0,0,0,0,0,0,0,0,0,0,0,0,0,0,0,0,0,0,0,0,0,0,0,0,0,0,0,0,0,0,0,0,0,0,0,0,0,0,0,0,0,0,0,0,0,0,0,0,6.0106,6.0106,0,6.0155,6.0155,6.0156,6.0113,6.0111,6.0109,6.0108,6.0155,6.0158,6.0161,0,0,0,0,0,0,0,0,0,0,0,0,0,5.9974,5.9977,6.0106,6.0106,6.0107,6.0155,6.0155,6.0156,6.0113,6.0111,6.0109,6.0107,6.0154,6.0158,6.0161,0,0,0,0,0,0,0,0,0,0,0,0,0,6.0028,5.9977,6.0106,6.0091,6.0091,6.0154,6.0155,6.0156,6.0114,6.0111,6.0108,6.0106,6.0153,6.0158,6.0162,6.0241,0,0,6.0175,6.0177,0,0,0,0,0,0,0,0,6.0025,6.0033,6.0093,6.0093,6.0092,6.0125,6.0126,6.0185,6.0114,6.0105,6.0108,6.0105,6.0147,6.0152,6.0167,6.0244,6.0246,6.0176,6.0178,6.018,6.0181,0,0,0,0,0,0,0,6.0021,6.003,6.0125,6.0094,6.0093,6.0082,6.0087,6.0137,6.014,6.0105,6.0103,6.0109,6.0146,6.0163,6.0168,6.0246,6.0175,6.0179,6.0182,6.0184,6.0393,6.0396,0,0,0,0,0,0,6.0019,6.0028,6.0123,6.0126,6.0051,6.0087,6.0092,6.0117,6.014,6.014,6.0111,6.0107,6.0157,6.0163,6.0169,6.0266,6.018,6.0184,6.0187,6.039,6.0394,6.0397,0,0,0,0,0,0,6.0016,6.0028,6.0121,6.0076,6.0087,6.0092,6.012,6.0119,6.0136,6.0144,6.0144,6.0128,6.0155,6.0163,6.0224,6.0266,6.0186,6.019,6.0387,6.0391,6.0395,6.0458,0,0,0,0,0,0,6.0013,6.0027,6.0058,6.0077,6.009,6.0176,6.0123,6.0122,6.0144,6.0138,6.0159,6.016,6.0153,6.0218,6.0229,6.0271,6.0193,6.0383,6.0389,6.0394,6.0452,6.0464,6.0474,0,0,0,0,0,6.0008,6.0072,6.006,6.0071,6.0128,6.0179,6.0186,6.0178,6.0147,6.0178,6.0183,6.0159,6.026,6.0225,6.0236,6.0281,6.038,6.0387,6.0393,6.0447,6.0461,6.0474,0,0,0,0,0,0,6.0056,6.0075,6.0061,6.0133,6.0155,6.0172,6.021,6.0193,6.0223,6.0217,6.0205,6.021,6.0275,6.0283,6.0244,6.036,6.0315,6.0324,6.0352,6.0366,6.0376,6.0373,6.0197,0,0,0,0,0,6.0075,6.0116,6.0129,6.0192,6.0204,6.0205,6.0227,6.0219,6.0241,6.0249,6.0259,6.0281,6.0318,6.0342,6.0376,6.0453,6.0458,6.0489,6.05,6.0509,6.0517,6.0561,6.0575,6.0419,6.0419,6.0418,0,0,6.0115,6.013,6.0156,6.0202,6.0218,6.026,6.0213,6.0259,6.029,6.0256,6.0316,6.0324,6.0347,6.0417,6.0449,6.0426,6.0562,6.0517,6.0524,6.0528,6.0569,6.0584,6.0597,6.0423,6.0422,6.0422,0,0,6.0209,6.0224,6.0279,6.0297,6.0322,6.0323,6.0336,6.0356,6.0361,6.0421,6.0397,6.0433,6.0496,6.0514,6.0532,6.0635,6.0615,6.0647,6.0704,6.0746,6.0759,6.077,6.0808,6.0822,6.0655,6.0655,6.0655,0,6.0255,6.0318,6.0309,6.0358,6.0379,6.0352,6.0408,6.0425,6.046,6.0475,6.045,6.053,6.0543,6.0619,6.0644,6.0659,6.0674,6.0644,6.0758,6.0769,6.0779,6.0815,6.083,6.0659,6.0658,6.0658,6.0658,0,6.0374,6.0418,6.0459,6.0496,6.0522,6.0574,6.0573,6.06,6.059,6.0594,6.0656,6.0671,6.0709,6.0726,6.0716,6.08,6.0786,6.076,6.0715,6.0798,6.0832,6.0846,6.0664,6.0663,6.0662,6.0661,0,0,6.0499,6.0532,6.0547,6.0564,6.0591,6.0625,6.0676,6.0714,6.0739,6.0764,6.0807,6.0862,6.0839,6.0859,6.085,6.0888,6.0971,6.0857,6.0857,6.0879,6.1067,6.1088,6.1104,6.0957,6.096,6.0962,6.1066,0,6.0596,6.0686,6.068,6.0765,6.0807,6.0782,6.0826,6.0848,6.0853,6.0889,6.0894,6.0934,6.0899,6.0911,6.0947,6.0953,6.1009,6.0945,6.0998,6.1,6.0994,6.1122,6.1144,6.1241,6.1079,6.1081,6.1083,0,6.072,6.0752,6.0842,6.0865,6.0882,6.0922,6.0958,6.0992,6.1017,6.1018,6.1042,6.1028,6.108,6.1033,6.1105,6.1062,6.1083,6.109,6.1093,6.1099,6.1047,6.1132,6.1271,6.1286,6.1103,6.1102,6.11,0,6.0805,6.087,6.0933,6.0948,6.0976,6.1005,6.1018,6.1039,6.1064,6.1094,6.111,6.1146,6.1166,6.1194,6.1191,6.1157,6.1265,6.1217,6.1268,6.1268,6.1292,6.1291,6.1438,6.1303,6.1303,6.1303,6.1303,0,6.0915,6.0971,6.0972,6.101,6.1073,6.1065,6.1127,6.1137,6.1157,6.1197,6.1176,6.1214,6.1207,6.1245,6.1242,6.1303,6.1312,6.1315,6.1313,6.1317,6.1317,6.1332,6.1325,6.1307,6.1306,6.1305,6.1304,0,6.102,6.1023,6.109,6.1111,6.1118,6.1163,6.1182,6.1218,6.1222,6.1273,6.1285,6.1291,6.1335,6.1334,6.1383,6.1381,6.1457,6.1447,6.1449,6.1448,6.1499,6.1495,6.1662,6.1684,6.1533,6.1535,6.1536,0,6.109,6.1133,6.116,6.1187,6.1202,6.1244,6.1269,6.1263,6.129,6.1322,6.1356,6.1398,6.1431,6.1502,6.1511,6.1549,6.1541,6.1597,6.1546,6.155,6.1544,6.1542,6.1547,6.1607,6.1609,6.161,6.1611,0,6.1216,6.1215,6.1253,6.1292,6.1323,6.1353,6.138,6.1402,6.14,6.1431,6.1477,6.1503,6.1555,6.1597,6.1634,6.1647,6.163,6.1627,6.1641,6.1646,6.1646,6.1649,6.1478,6.1623,6.1622,6.1621,6.162,6.162,6.1307,6.1345,6.1371,6.1414,6.1434,6.1461,6.1497,6.1507,6.1545,6.1587,6.1581,6.1632,6.1657,6.1705,6.1721,6.1761,6.1741,6.1761,6.1766,6.1772,6.1778,6.1639,6.1767,6.1767,6.1767,6.1766,6.1766,0,6.1433,6.1448,6.1488,6.1529,6.1563,6.1544,6.1574,6.1604,6.1649,6.1674,6.1708,6.1761,6.1803,6.1815,6.1856,6.1885,6.1879,6.1896,6.1895,6.1898,6.1793,6.1777,6.1901,6.1901,6.1901,6.1901,6.1901,6.1901,6.1502,6.1566,6.157,6.1644,6.1659,6.171,6.1729,6.1754,6.1774,6.1835,6.187,6.1878,6.1898,6.194,6.1978,6.198,6.1997,6.2018,6.2018,6.1919,6.1906,6.1893,6.1878,6.2022,6.2022,6.212,6.2121,6.2122]}]]